YUBILEINY (RS30)

Last updated on Tue Aug 25 2026 00:03:13 GMT+0000 (Coordinated Universal Time)

1 32953U 08025A 26236.58533777 .00000042 00000+0 22673-3 0 9999 2 32953 82.5064 312.9017 0020175 159.5805 200.6086 12.43182201828194
UTC large
Height (km)
Speed (km/s)
/
Latitude / Longitude
Inclination (degrees)
Orbital Period (minutes)
Azimuth
Elevation
Range (km)
Doppler Factor

Next 0 passes for location: London (51.5072 / 0.1276)

No passes found over London.
YUBILEINY (RS30)